This is the latest recevied weather packets stored in our database for station/object WW3TRG. If no packets are shown the sender has not sent any weather packets the latest 10 day(s).
| Time | Temp. | Humidity | Pressure | Rain* | Wind** | Luminosity | Snow |
|---|---|---|---|---|---|---|---|
| 1778076906 | 17.22° C | 96% | 1008 hPa | 1.27 mm | - | 35 W/m² | - |
| 1778076604 | 16.67° C | 95% | 1008.1 hPa | 0.51 mm | - | 49 W/m² | - |
| 1778076301 | 16.67° C | 95% | 1007.8 hPa | 0 mm | - | 61 W/m² | - |
| 1778075998 | 16.67° C | 95% | 1008 hPa | 0.51 mm | - | 53 W/m² | - |
| 1778075695 | 17.22° C | 95% | 1007.9 hPa | 0.51 mm | - | 35 W/m² | - |
| 1778075391 | 17.22° C | 94% | 1007.7 hPa | 0 mm | - | 45 W/m² | - |
| 1778075087 | 17.22° C | 93% | 1007.9 hPa | 0.51 mm | - | 62 W/m² | - |
| 1778074784 | 17.22° C | 93% | 1007.8 hPa | 0.51 mm | - | 92 W/m² | - |
| 1778074481 | 16.67° C | 93% | 1007.9 hPa | 0 mm | - | 83 W/m² | - |
| 1778074178 | 16.67° C | 94% | 1008.1 hPa | 0 mm | - | 42 W/m² | - |
| 1778073875 | 17.22° C | 93% | 1007.9 hPa | 0 mm | - | 40 W/m² | - |
| 1778073572 | 16.67° C | 93% | 1008.3 hPa | 0 mm | - | 46 W/m² | - |
| 1778073269 | 17.22° C | 93% | 1008.1 hPa | 0 mm | - | 48 W/m² | - |
| 1778072966 | 17.22° C | 92% | 1008 hPa | 0 mm | - | 40 W/m² | - |
| 1778072662 | 17.22° C | 91% | 1008.4 hPa | 0.51 mm | - | 31 W/m² | - |
| 1778072360 | 17.22° C | 90% | 1008.1 hPa | 0.51 mm | - | 42 W/m² | - |
| 1778072058 | 17.78° C | 88% | 1008.2 hPa | 0 mm | - | 42 W/m² | - |
| 1778071756 | 17.78° C | 86% | 1008.3 hPa | 0 mm | - | 44 W/m² | - |
| 1778071453 | 17.78° C | 85% | 1008.2 hPa | 0 mm | - | 35 W/m² | - |
| 1778071151 | 17.78° C | 86% | 1007.9 hPa | 0 mm | - | 33 W/m² | - |
| 1778070849 | 17.78° C | 85% | 1008 hPa | 0 mm | - | 39 W/m² | - |
| 1778070546 | 18.33° C | 84% | 1008 hPa | 0 mm | - | 37 W/m² | - |
| 1778070243 | 18.33° C | 82% | 1007.9 hPa | 0 mm | - | 35 W/m² | - |
| 1778069941 | 18.33° C | 83% | 1007.8 hPa | 0 mm | - | 43 W/m² | - |
| 1778069638 | 18.33° C | 84% | 1007.6 hPa | 0 mm | - | 53 W/m² | - |
* Rain latest hour (hover to see other rain measurements)
** Current wind speed in m/s (hover to see current wind gust speed)